| time (UTC) | temp F | wind direction | speed MPH | gust MPH | rain 1hr in | rain 24hr in | rain mn in | humidity % | barometer mb |
| 20260903103036 | 78 | 180 | 0.0 | 0.0 | 0.00 | 0.54 | 0.11 | 88 | 1013.6 |
| 20260903101504 | 78 | 180 | 0.0 | 0.0 | 0.00 | 0.54 | 0.11 | 88 | 1013.4 |
| 20260903100040 | 78 | 180 | 0.0 | 0.0 | 0.00 | 0.54 | 0.11 | 88 | 1013.4 |
| 20260903094602 | 78 | 180 | 0.0 | 1.0 | 0.00 | 0.54 | 0.11 | 88 | 1013.6 |
| 20260903093027 | 78 | 180 | 0.0 | 0.0 | 0.00 | 0.54 | 0.11 | 88 | 1013.5 |
| 20260903091555 | 78 | 180 | 0.0 | 0.0 | 0.00 | 0.54 | 0.11 | 88 | 1013.5 |
| 20260903090020 | 78 | 180 | 0.0 | 0.0 | 0.00 | 0.54 | 0.11 | 88 | 1013.4 |
| 20260903084547 | 78 | 180 | 0.0 | 0.0 | 0.00 | 0.54 | 0.11 | 88 | 1013.4 |
| 20260903083018 | 78 | 180 | 0.0 | 0.0 | 0.00 | 0.54 | 0.11 | 89 | 1013.3 |
| 20260903081550 | 78 | 180 | 0.0 | 0.0 | 0.00 | 0.54 | 0.11 | 89 | 1013.3 |
| 20260903080018 | 78 | 180 | 0.0 | 0.0 | 0.00 | 0.54 | 0.11 | 89 | 1013.2 |
| 20260903074547 | 78 | 180 | 0.0 | 0.0 | 0.00 | 0.54 | 0.11 | 89 | 1013.1 |
| 20260903073023 | 77 | 180 | 0.0 | 0.0 | 0.00 | 0.54 | 0.11 | 89 | 1013.1 |
| 20260903071554 | 77 | 180 | 0.0 | 0.0 | 0.00 | 0.54 | 0.11 | 89 | 1013.1 |
| 20260903070022 | 77 | 180 | 0.0 | 0.0 | 0.00 | 0.54 | 0.11 | 89 | 1013.2 |
| 20260903064555 | 77 | 180 | 0.0 | 0.0 | 0.01 | 0.54 | 0.11 | 89 | 1013.3 |
| 20260903063026 | 77 | 180 | 0.0 | 0.0 | 0.03 | 0.54 | 0.11 | 89 | 1013.4 |
| 20260903061600 | 77 | 180 | 0.0 | 1.0 | 0.09 | 0.54 | 0.11 | 89 | 1013.4 |
| 20260903060025 | 76 | 180 | 0.0 | 0.0 | 0.11 | 0.54 | 0.11 | 89 | 1013.7 |
| 20260903054547 | 77 | 180 | 0.0 | 1.0 | 0.10 | 0.53 | 0.10 | 89 | 1014.0 |
| 20260903053018 | 77 | 180 | 0.0 | 1.0 | 0.08 | 0.51 | 0.08 | 89 | 1014.5 |
| 20260903051546 | 77 | 185 | 0.0 | 2.0 | 0.02 | 0.45 | 0.02 | 89 | 1014.4 |
| 20260903050109 | 77 | 198 | 0.0 | 5.0 | 0.00 | 0.43 | 0.00 | 89 | 1014.6 |
| 20260903044511 | 77 | 173 | 0.0 | 0.0 | 0.00 | 0.43 | 0.43 | 89 | 1014.8 |
| 20260903043037 | 77 | 173 | 0.0 | 0.0 | 0.00 | 0.43 | 0.43 | 89 | 1015.0 |
| 20260903041513 | 77 | 173 | 0.0 | 0.0 | 0.00 | 0.43 | 0.43 | 89 | 1015.1 |
| 20260903040039 | 77 | 173 | 0.0 | 1.0 | 0.00 | 0.43 | 0.43 | 89 | 1014.6 |
| 20260903034513 | 77 | 173 | 0.0 | 0.0 | 0.00 | 0.43 | 0.43 | 89 | 1014.5 |
| 20260903033036 | 77 | 173 | 0.0 | 1.0 | 0.00 | 0.43 | 0.43 | 89 | 1014.4 |
| 20260903031508 | 77 | 173 | 0.0 | 1.0 | 0.00 | 0.43 | 0.43 | 89 | 1014.2 |
| 20260903030041 | 77 | 173 | 0.0 | 0.0 | 0.00 | 0.43 | 0.43 | 89 | 1014.3 |
| 20260903024558 | 77 | 173 | 0.0 | 1.0 | 0.00 | 0.43 | 0.43 | 89 | 1013.9 |
| 20260903023036 | 77 | 173 | 0.0 | 2.0 | 0.01 | 0.43 | 0.43 | 89 | 1013.9 |
| 20260903021504 | 77 | 173 | 0.0 | 2.0 | 0.02 | 0.43 | 0.43 | 89 | 1013.6 |
| 20260903020038 | 77 | 173 | 0.0 | 2.0 | 0.03 | 0.43 | 0.43 | 89 | 1013.1 |
| 20260903014505 | 77 | 173 | 0.0 | 3.0 | 0.04 | 0.43 | 0.43 | 88 | 1013.6 |
| 20260903013031 | 78 | 173 | 0.0 | 5.0 | 0.15 | 0.42 | 0.42 | 88 | 1012.6 |
| 20260903011605 | 78 | 40 | 1.0 | 3.0 | 0.23 | 0.41 | 0.41 | 88 | 1013.5 |
| 20260903010030 | 78 | 18 | 0.0 | 1.0 | 0.22 | 0.40 | 0.40 | 88 | 1013.1 |
| 20260903004548 | 79 | 18 | 0.0 | 3.0 | 0.21 | 0.39 | 0.39 | 88 | 1012.4 |
| 20260903003014 | 79 | 18 | 1.0 | 3.0 | 0.08 | 0.25 | 0.26 | 87 | 1012.6 |
| 20260903001545 | 80 | 11 | 1.0 | 3.0 | 0.01 | 0.18 | 0.18 | 86 | 1013.0 |
| 20260903000030 | 81 | 107 | 0.0 | 2.0 | 0.01 | 0.18 | 0.18 | 86 | 1012.3 |
| 20260902234544 | 81 | 107 | 0.0 | 2.0 | 0.03 | 0.18 | 0.18 | 85 | 1012.5 |
| 20260902233012 | 82 | 107 | 0.0 | 2.0 | 0.04 | 0.17 | 0.17 | 84 | 1012.7 |
| 20260902231538 | 82 | 107 | 0.0 | 2.0 | 0.04 | 0.17 | 0.17 | 83 | 1012.2 |
| 20260902230008 | 83 | 107 | 0.0 | 2.0 | 0.05 | 0.17 | 0.17 | 82 | 1012.3 |
| 20260902224529 | 84 | 32 | 1.0 | 3.0 | 0.03 | 0.23 | 0.15 | 80 | 1012.2 |
| 20260902223107 | 84 | 32 | 2.0 | 4.0 | 0.01 | 0.21 | 0.13 | 81 | 1012.0 |
| 20260902221530 | 84 | 187 | 0.0 | 0.0 | 0.01 | 0.21 | 0.13 | 79 | 1011.9 |
| 20260902220024 | 84 | 187 | 0.0 | 1.0 | 0.01 | 0.20 | 0.12 | 77 | 1011.7 |
| 20260902214559 | 85 | 187 | 0.0 | 0.0 | 0.01 | 0.53 | 0.12 | 75 | 1011.7 |
| 20260902213015 | 86 | 187 | 0.0 | 1.0 | 0.01 | 0.53 | 0.12 | 72 | 1011.5 |
| 20260902211539 | 87 | 188 | 5.0 | 12.0 | 0.01 | 0.53 | 0.12 | 68 | 1012.0 |
| 20260902210012 | 89 | 240 | 1.0 | 5.0 | 0.01 | 0.52 | 0.11 | 63 | 1011.9 |
| 20260902204528 | 91 | 199 | 5.0 | 15.0 | 0.01 | 0.52 | 0.11 | 62 | 1012.4 |
| 20260902203059 | 92 | 173 | 4.0 | 11.0 | 0.01 | 0.52 | 0.11 | 62 | 1012.0 |
| 20260902203002 | 92 | 217 | 3.0 | 11.0 | 0.01 | 0.52 | 0.11 | 62 | 1012.0 |
| 20260902201536 | 93 | 169 | 0.0 | 5.0 | 0.01 | 0.52 | 0.11 | 61 | 1012.3 |
| 20260902200050 | 93 | 171 | 3.0 | 9.0 | 0.00 | 0.51 | 0.10 | 56 | 1012.2 |
| 20260902194511 | 94 | 203 | 2.0 | 7.0 | 0.00 | 0.51 | 0.10 | 58 | 1012.2 |
| 20260902193035 | 93 | 202 | 3.0 | 9.0 | 0.00 | 0.51 | 0.10 | 59 | 1012.4 |
| 20260902191558 | 92 | 160 | 1.0 | 7.0 | 0.00 | 0.51 | 0.10 | 59 | 1012.7 |
| 20260902191516 | 92 | 186 | 1.0 | 7.0 | 0.00 | 0.51 | 0.10 | 60 | 1012.7 |
| 20260902190026 | 91 | 187 | 2.0 | 8.0 | 0.00 | 0.51 | 0.10 | 61 | 1012.9 |
| 20260902184552 | 91 | 172 | 1.0 | 3.0 | 0.00 | 0.51 | 0.10 | 63 | 1013.0 |
| 20260902183017 | 90 | 296 | 2.0 | 9.0 | 0.00 | 0.51 | 0.10 | 64 | 1013.4 |
| 20260902181540 | 89 | 166 | 1.0 | 7.0 | 0.00 | 0.51 | 0.10 | 66 | 1013.7 |
| 20260902180009 | 88 | 162 | 2.0 | 11.0 | 0.00 | 0.51 | 0.10 | 67 | 1014.0 |
| 20260902174550 | 88 | 192 | 1.0 | 8.0 | 0.00 | 0.51 | 0.10 | 68 | 1014.3 |
| 20260902173020 | 87 | 313 | 1.0 | 9.0 | 0.00 | 0.51 | 0.10 | 71 | 1014.6 |
| 20260902171543 | 86 | 273 | 1.0 | 8.0 | 0.00 | 0.51 | 0.10 | 74 | 1014.8 |
| 20260902170100 | 85 | 188 | 3.0 | 6.0 | 0.00 | 0.51 | 0.10 | 76 | 1015.2 |
| 20260902170001 | 85 | 174 | 3.0 | 7.0 | 0.00 | 0.51 | 0.10 | 76 | 1015.2 |
| 20260902164529 | 84 | 203 | 3.0 | 8.0 | 0.00 | 0.51 | 0.10 | 79 | 1015.3 |
| 20260902163053 | 83 | 205 | 1.0 | 8.0 | 0.00 | 0.51 | 0.10 | 82 | 1015.4 |
| 20260902163003 | 83 | 205 | 1.0 | 8.0 | 0.00 | 0.51 | 0.10 | 82 | 1015.5 |
| 20260902161517 | 82 | 240 | 3.0 | 9.0 | 0.00 | 0.51 | 0.10 | 84 | 1015.4 |
| 20260902160059 | 81 | 220 | 1.0 | 12.0 | 0.00 | 0.51 | 0.10 | 86 | 1015.4 |
| 20260902154507 | 80 | 280 | 3.0 | 9.0 | 0.00 | 0.51 | 0.10 | 88 | 1015.4 |
| 20260902153038 | 80 | 196 | 0.0 | 11.0 | 0.00 | 0.51 | 0.10 | 88 | 1015.3 |
| 20260902151553 | 79 | 213 | 1.0 | 4.0 | 0.00 | 0.51 | 0.10 | 88 | 1015.2 |
| 20260902150023 | 79 | 271 | 3.0 | 7.0 | 0.00 | 0.51 | 0.10 | 89 | 1015.3 |
| 20260902144543 | 79 | 198 | 0.0 | 5.0 | 0.00 | 0.51 | 0.10 | 89 | 1015.2 |
| 20260902143014 | 78 | 213 | 3.0 | 5.0 | 0.00 | 0.51 | 0.10 | 89 | 1015.3 |
| 20260902141530 | 78 | 254 | 1.0 | 4.0 | 0.00 | 0.51 | 0.10 | 89 | 1015.2 |
| 20260902140055 | 78 | 155 | 1.0 | 6.0 | 0.00 | 0.51 | 0.10 | 89 | 1015.1 |
| 20260902134521 | 78 | 205 | 0.0 | 6.0 | 0.00 | 0.51 | 0.10 | 89 | 1015.0 |
| 20260902133047 | 78 | 188 | 1.0 | 7.0 | 0.00 | 0.51 | 0.10 | 89 | 1014.9 |
| 20260902131511 | 78 | 190 | 1.0 | 5.0 | 0.00 | 0.51 | 0.10 | 89 | 1014.8 |
| 20260902130036 | 78 | 252 | 0.0 | 4.0 | 0.00 | 0.51 | 0.10 | 89 | 1014.7 |
| 20260902124503 | 78 | 236 | 0.0 | 4.0 | 0.00 | 0.51 | 0.10 | 89 | 1014.4 |
| 20260902123043 | 78 | 319 | 0.0 | 4.0 | 0.00 | 0.51 | 0.10 | 89 | 1014.2 |
| 20260902121558 | 78 | 257 | 0.0 | 3.0 | 0.00 | 0.51 | 0.10 | 89 | 1013.4 |
| 20260902121502 | 78 | 257 | 1.0 | 4.0 | 0.00 | 0.51 | 0.10 | 89 | 1013.5 |
| 20260902120035 | 78 | 209 | 0.0 | 3.0 | 0.01 | 0.51 | 0.10 | 88 | 1013.3 |
| 20260902114558 | 78 | 249 | 0.0 | 4.0 | 0.02 | 0.51 | 0.10 | 88 | 1013.2 |
| 20260902113034 | 78 | 268 | 1.0 | 4.0 | 0.10 | 0.51 | 0.10 | 88 | 1012.9 |
| 20260902111602 | 78 | 217 | 2.0 | 7.0 | 0.10 | 0.51 | 0.10 | 87 | 1012.8 |
| 20260902110018 | 78 | 249 | 2.0 | 5.0 | 0.09 | 0.50 | 0.09 | 86 | 1012.6 |
| 20260902104547 | 78 | 252 | 0.0 | 3.0 | 0.08 | 0.49 | 0.08 | 85 | 1012.8 |